Weather History for Fort Belvoir, VA

Change the Weather History Date:

Tuesday, March 5, 2013

  Actual Average Record
Temperature  
Mean Temperature 38 °F -  
Max Temperature 50 °F 50 °F 77 °F (2004)
Min Temperature 26 °F 31 °F 14 °F (2002)
Degree Days  
Heating Degree Days 27    
Moisture  
Dew Point 22 °F    
Average Humidity 54    
Maximum Humidity 93    
Minimum Humidity 27    
Precipitation  
Precipitation 0.03 in - - ()
Sea Level Pressure  
Sea Level Pressure 29.99 in    
Wind  
Wind Speed 3 mph (SE)    
Max Wind Speed 12 mph    
Max Gust Speed -    
Visibility 10 miles    
Events Rain    
Averages and records for this station are not official NWS values.
T = Trace of Precipitation, MM = Missing Value Source: NWS Daily Summary

Daily Weather History Graph

Daily Weather History Graph

Search for Another Location

Airport:

Trip Planner

Search our weather history database for the weather conditions in past years. The results will help you decide how hot, cold, wet, or windy it might be!

Date:

Astronomy

Mar. 05, 2013 Rise Set
Actual Time 6:34 AM EST 6:06 PM EST
Civil Twilight 6:08 AM EST 6:32 PM EST
Nautical Twilight 5:37 AM EST 7:03 PM EST
Astronomical Twilight 5:06 AM EST 7:34 PM EST
Moon 1:42 AM EST (3/5) 11:45 AM EST (3/5)
Length of Visible Light 12h 24m
Length of Day
11h 31m
Last Quarter, 41% of the Moon is Illuminated
Mar 5
Last Quarter
Mar 11
New
Mar 19
First Quarter
Mar 27
Full
Apr 3
Last Quarter

Hourly Weather History & Observations

Time (EST) Temp. Windchill Dew Point Humidity Pressure Visibility Wind Dir Wind Speed Gust Speed Precip Events Conditions
12:55 AM 26.6 °F - 18.9 °F 73% 30.07 in 10.0 mi Calm Calm - N/A   Clear
1:55 AM 27.3 °F - 19.2 °F 72% 30.07 in 10.0 mi Calm Calm - N/A   Clear
2:55 AM 28.8 °F - 20.7 °F 72% 30.07 in 10.0 mi Calm Calm - N/A   Clear
3:55 AM 32.7 °F - 18.7 °F 56% 30.08 in 10.0 mi Calm Calm - N/A   Clear
4:55 AM 27.1 °F - 19.9 °F 74% 30.09 in 10.0 mi Calm Calm - N/A   Clear
5:55 AM 27.1 °F - 18.5 °F 70% 30.09 in 10.0 mi Calm Calm - N/A   Clear
6:55 AM 26.8 °F - 19.2 °F 73% 30.10 in 10.0 mi Calm Calm - N/A   Clear
7:55 AM 36.0 °F 33.3 °F 19.4 °F 51% 30.10 in 10.0 mi NNW 3.5 mph - N/A   Clear
8:55 AM 40.5 °F 38.4 °F 18.7 °F 42% 30.10 in 10.0 mi Variable 3.5 mph - N/A   Clear
9:55 AM 43.5 °F 38.9 °F 18.1 °F 36% 30.09 in 10.0 mi NW 8.1 mph - N/A   Partly Cloudy
10:55 AM 46.8 °F - 16.7 °F 30% 30.06 in 10.0 mi NW 5.8 mph - N/A   Clear
11:55 AM 49.5 °F - 16.7 °F 27% 30.04 in 10.0 mi Variable 5.8 mph - N/A   Partly Cloudy
12:55 PM 48.0 °F - 19.6 °F 32% 30.01 in 10.0 mi Variable 4.6 mph - N/A   Scattered Clouds
1:55 PM 50.0 °F - 18.5 °F 29% 29.99 in 10.0 mi Calm Calm - N/A   Partly Cloudy
2:55 PM 49.5 °F - 17.1 °F 28% 29.96 in 10.0 mi Variable 5.8 mph - N/A   Clear
3:55 PM 50.2 °F - 17.4 °F 27% 29.95 in 10.0 mi SE 4.6 mph - N/A   Overcast
4:55 PM 48.7 °F - 18.7 °F 30% 29.95 in 10.0 mi South 6.9 mph - N/A   Mostly Cloudy
5:55 PM 45.7 °F 41.5 °F 23.2 °F 41% 29.96 in 10.0 mi ESE 8.1 mph - N/A   Overcast
6:55 PM 43.5 °F 40.1 °F 23.2 °F 45% 29.94 in 10.0 mi Variable 5.8 mph - N/A   Overcast
7:55 PM 42.6 °F 38.4 °F 21.0 °F 42% 29.94 in 10.0 mi ESE 6.9 mph - N/A   Overcast
8:55 PM 42.3 °F 40.5 °F 21.0 °F 43% 29.91 in 10.0 mi ESE 3.5 mph - N/A   Partly Cloudy
9:55 PM 41.9 °F 37.5 °F 20.5 °F 42% 29.88 in 10.0 mi Variable 6.9 mph - N/A   Partly Cloudy
10:18 PM 41.0 °F 34.3 °F 28.4 °F 61% 29.89 in 10.0 mi SSE 11.5 mph - N/A Rain Light Rain
10:35 PM 37.4 °F 32.1 °F 32.0 °F 81% 29.88 in 10.0 mi SE 6.9 mph - N/A Rain Light Rain
10:55 PM 37.2 °F 32.6 °F 33.1 °F 85% 29.87 in 10.0 mi Variable 5.8 mph - 0.00 in Rain Light Rain
11:30 PM 35.6 °F - 33.8 °F 93% 29.86 in 9.0 mi Calm Calm - N/A Rain Light Rain
11:55 PM 35.6 °F 30.7 °F 33.3 °F 91% 29.83 in 6.0 mi Variable 5.8 mph - 0.03 in Rain Light Rain